Wind_Speed
14 7 7 9 9 12 13 14 13 9 9 11 12 11 14 13 9 9 6 7 6 6 8 10 11 14 17 15 15 17 17 17 19 17 17 17 16 16 16 16 17 19 21 19 22 24 25 26 25 27 28 28 28 28 29 29 31 33 34 35 35 35 34 33 33 33 32 33 33 32 32 32 32 30 29 29 28 27 23 20 22 25 24 24 25 24
13 9 12 13 12 14 16 16 16 13 10 10 12 11 13 13 10 6 3 6 5 4 8 11 13 15 17 15 15 17 15 16 20 20 20 21 19 18 18 18 18 20 20 19 21 23 25 27 27 28 29 30 30 29 29 31 32 33 34 35 36 35 35 34 34 34 34 34 34 33 33 33 33 32 31 31 31 29 26 22 21 23 24 25 27 25
11 11 15 16 15 16 15 15 16 15 11 10 10 10 11 11 11 7 4 5 5 3 7 10 12 14 15 16 15 17 17 19 24 23 22 22 22 21 19 18 19 20 21 21 22 23 24 26 27 28 30 30 31 30 30 31 32 33 34 35 36 36 36 36 36 35 35 35 34 33 33 33 33 32 31 32 32 31 30 27 26 26 25 27 28 26
11 11 16 19 17 17 15 15 15 11 8 7 8 10 11 11 11 8 5 6 5 4 7 10 11 11 14 16 15 20 24 24 26 25 25 26 24 23 21 18 18 19 22 24 24 24 24 26 26 28 30 31 32 32 32 32 33 34 35 36 37 37 38 38 38 37 37 36 34 34 33 33 32 31 31 32 31 30 29 29 30 29 27 28 28 25
10 10 19 21 17 19 16 15 14 8 5 7 9 11 11 10 12 7 3 4 5 6 5 7 10 9 11 16 14 15 21 23 25 26 25 27 27 26 24 22 21 20 21 24 25 25 25 27 27 27 28 31 33 34 34 34 34 34 35 35 37 38 38 39 40 39 38 37 37 36 35 35 34 34 34 33 32 30 29 29 30 28 27 28 27 24
12 13 21 21 17 20 18 14 14 9 5 8 12 15 13 10 11 8 3 2 5 6 3 0 8 6 6 13 11 7 10 14 18 21 21 23 24 26 27 27 29 30 28 28 27 26 27 27 28 26 27 31 34 34 34 34 34 33 33 34 35 37 38 39 40 40 39 40 40 40 40 39 38 38 39 38 36 34 32 31 30 28 27 28 27 24
10 14 19 20 19 21 19 15 17 15 9 9 12 15 15 10 9 8 4 4 6 4 2 2 6 7 6 12 12 8 9 11 13 15 18 20 21 25 28 28 33 40 40 36 31 27 28 29 29 29 27 29 33 35 34 33 33 33 32 33 34 35 36 38 39 41 41 41 42 42 42 42 41 42 42 42 39 36 35 34 32 31 31 31 29 25
11 18 18 21 21 17 17 15 16 19 13 7 8 12 14 11 10 9 7 7 4 3 2 4 5 9 10 11 15 15 16 17 16 16 17 20 23 25 28 29 34 41 43 42 36 30 30 31 31 31 29 28 30 32 34 34 33 33 33 34 34 34 35 36 38 40 41 42 43 44 44 44 44 44 43 43 40 38 36 35 34 33 32 33 30 26
12 21 19 21 19 13 15 14 15 20 12 3 8 10 12 9 6 6 7 6 2 4 6 6 4 7 9 7 11 15 15 17 19 19 18 21 24 25 26 28 33 40 43 45 42 35 32 33 32 31 30 29 29 30 32 32 33 33 34 35 35 36 36 36 38 38 40 40 41 42 43 45 45 45 44 43 42 40 39 38 36 35 33 33 32 28
6 15 19 19 14 10 15 14 16 19 10 6 10 7 5 4 4 2 3 1 3 3 7 6 7 6 9 5 7 11 12 14 15 14 15 19 24 25 24 26 29 36 40 44 45 39 33 33 33 31 30 31 31 32 31 31 32 34 36 37 37 38 38 38 39 39 39 38 38 40 42 43 44 45 45 43 42 41 40 39 38 37 34 33 33 31
3 6 11 13 11 14 17 13 15 19 13 12 12 10 9 7 6 4 1 3 1 6 5 8 12 7 8 4 6 9 11 10 9 8 10 15 20 22 22 23 27 32 36 40 45 43 35 32 33 32 31 32 32 33 33 33 32 34 37 38 38 39 39 39 40 40 39 39 38 39 40 42 43 43 44 43 43 41 40 40 39 38 36 34 35 33
6 6 5 5 8 15 14 6 6 14 16 13 8 8 7 3 3 2 1 2 5 7 2 8 14 11 9 5 5 9 12 9 7 6 7 9 13 16 18 20 24 30 33 36 42 44 37 33 34 35 33 32 33 33 34 34 33 34 37 38 38 39 39 40 41 40 40 39 39 39 40 42 42 43 43 43 43 42 42 42 40 37 36 35 36 33
8 9 6 4 4 12 13 8 4 9 13 11 8 9 7 4 3 4 4 3 7 5 2 5 8 9 12 10 8 12 14 12 9 8 10 10 11 13 15 18 22 27 30 32 38 41 37 33 33 35 34 33 34 34 33 34 35 35 37 39 39 39 39 40 41 40 40 40 40 40 41 42 43 44 44 43 42 42 43 43 41 39 38 37 37 35
7 4 7 7 5 13 16 9 6 7 11 14 11 11 10 6 6 8 6 5 6 3 2 3 3 5 12 10 12 17 19 19 16 13 13 14 15 16 15 15 16 20 25 27 32 35 35 34 32 32 33 34 35 35 35 35 36 36 37 40 41 40 40 41 41 41 41 41 41 41 42 43 44 45 45 44 43 43 43 43 43 42 41 39 38 37
8 2 9 10 7 16 18 11 9 8 9 12 9 9 9 6 6 6 5 7 6 2 4 6 3 6 7 2 2 8 12 14 13 11 11 13 16 17 17 18 19 20 22 23 27 31 34 35 34 33 33 33 33 34 37 38 37 38 38 40 41 42 42 42 42 42 42 42 42 42 43 44 45 45 46 45 44 43 43 42 42 42 41 41 39 37
8 3 8 7 5 16 17 9 12 12 7 4 2 6 9 7 6 3 1 3 4 1 4 7 5 7 6 6 7 7 8 9 11 11 11 12 15 16 17 23 27 27 25 24 24 26 29 32 33 33 33 33 33 33 35 38 39 40 39 40 41 42 43 43 43 43 43 43 43 43 44 45 45 45 45 45 44 44 43 41 41 41 41 40 39 38
11 4 6 5 5 14 13 13 18 14 7 4 3 5 3 1 4 5 2 2 1 6 6 6 7 7 7 12 13 14 14 13 13 13 12 13 15 15 16 21 23 24 25 26 25 25 26 27 28 29 30 31 33 34 34 35 37 39 41 41 41 41 43 44 44 44 44 43 43 44 45 45 45 44 45 44 44 44 43 41 41 39 39 40 39 37
10 4 2 3 5 7 8 15 15 5 3 5 7 8 5 5 3 5 6 3 3 8 7 7 11 9 5 7 6 12 17 16 15 14 12 12 13 13 16 18 17 17 20 24 25 26 26 27 28 28 28 28 29 31 33 33 33 35 38 40 41 41 42 43 44 44 45 44 44 44 45 45 45 44 44 44 43 44 43 42 41 39 38 40 39 36
9 6 2 1 3 2 5 12 6 5 4 3 4 9 7 2 4 6 6 6 7 8 6 8 13 10 8 9 3 5 11 12 12 13 11 12 14 14 15 14 12 13 17 20 22 24 24 25 27 28 28 27 26 26 28 31 31 30 31 33 36 38 39 40 42 43 45 45 45 45 46 45 44 43 43 42 42 43 44 43 42 39 38 39 38 35
8 5 2 1 1 2 6 8 8 7 5 3 3 8 7 4 5 7 6 4 6 8 7 8 10 8 9 12 11 11 10 8 8 9 9 12 15 15 12 9 9 11 12 13 15 18 19 21 22 23 25 26 25 24 24 26 29 28 27 27 28 31 35 38 40 42 44 46 46 47 47 46 45 44 42 41 40 42 43 42 40 39 38 39 37 35
7 5 5 3 1 5 6 5 9 12 9 5 7 10 7 3 1 3 5 4 5 7 7 7 8 8 5 5 9 12 12 11 10 9 10 10 10 10 9 8 11 12 11 12 14 16 17 18 18 19 21 23 24 24 24 24 25 26 26 25 26 28 31 35 38 41 44 47 48 49 48 47 47 46 43 39 38 40 41 40 38 38 38 37 36 35
5 5 8 6 5 6 3 2 3 8 12 9 8 10 9 6 3 3 7 6 4 5 7 6 8 8 2 3 4 6 8 9 8 8 8 7 4 4 6 10 13 14 15 16 18 18 19 19 18 18 19 21 24 25 25 25 24 24 25 25 26 28 31 33 36 39 42 45 47 48 48 47 47 46 43 39 38 39 39 38 38 38 36 35 35 35
3 4 8 7 7 4 1 1 3 3 9 10 7 10 10 7 7 8 9 7 5 5 6 5 8 7 3 5 2 1 2 1 1 1 3 3 3 3 5 8 9 10 11 12 13 15 17 19 20 19 18 19 23 25 27 27 27 27 26 27 28 29 30 31 32 34 37 39 42 44 44 44 44 43 42 39 38 38 38 39 39 37 34 34 34 35
4 5 7 6 4 2 3 2 3 4 4 7 7 11 13 12 12 9 4 2 4 7 8 6 10 10 2 4 1 2 2 1 2 2 3 2 1 1 2 1 1 4 7 9 9 10 12 14 17 19 18 17 18 22 25 27 28 27 26 26 26 26 25 26 27 28 30 32 34 36 37 38 37 38 38 37 37 37 37 38 37 36 34 34 34 34
7 5 8 7 4 2 1 2 3 4 6 8 10 13 15 16 15 10 4 0 3 9 11 10 12 11 1 4 2 2 2 2 3 3 3 3 1 1 3 3 3 5 9 11 12 11 10 10 11 14 16 15 14 15 18 22 23 23 22 22 21 21 21 21 22 23 24 25 27 28 30 31 32 33 35 36 37 36 36 37 36 35 34 34 34 34
8 6 9 9 8 9 8 7 6 6 5 5 8 13 15 16 16 12 6 4 6 11 11 10 12 12 4 4 5 6 5 4 5 5 4 5 6 6 6 4 1 3 6 10 14 15 13 10 9 9 10 11 11 11 13 16 18 19 19 18 18 18 18 18 19 20 20 21 23 24 25 27 28 30 32 33 34 34 35 36 35 34 34 34 34 34
4 5 9 9 10 8 4 2 7 9 7 6 9 12 13 13 13 9 5 7 11 10 9 12 16 17 12 8 8 8 8 8 8 7 6 8 12 12 11 9 7 7 8 9 12 15 16 13 9 6 7 8 8 9 10 12 13 15 15 16 16 16 17 17 18 19 20 21 22 23 24 25 26 27 29 30 31 31 32 33 34 34 34 34 34 34
2 6 13 13 13 9 3 6 12 14 13 13 13 15 14 15 14 10 9 13 14 9 11 19 22 22 20 14 10 9 10 10 9 10 11 12 13 13 12 11 10 10 10 10 11 14 15 13 9 6 5 6 7 8 9 10 12 13 14 14 15 15 16 16 17 19 20 21 23 24 25 26 26 27 27 27 28 29 30 31 32 32 32 33 34 33
4 8 14 13 11 7 7 11 15 15 14 15 16 18 18 19 19 17 19 22 19 14 17 19 17 21 25 19 13 11 10 10 10 13 13 11 11 11 10 10 12 13 13 13 14 13 13 12 9 7 7 6 6 8 9 10 12 13 14 14 14 14 15 15 16 17 17 19 20 22 24 26 27 28 28 28 28 28 28 29 29 30 31 31 32 32
5 7 12 13 10 6 8 12 17 17 15 16 19 21 21 22 24 24 25 26 22 21 24 17 11 19 22 14 11 13 13 13 13 13 12 11 12 13 12 13 17 18 19 20 20 18 15 12 9 8 8 8 8 9 9 10 11 12 13 14 14 14 14 15 16 16 16 17 18 19 21 24 26 28 28 29 28 27 27 27 27 28 29 31 32 32
8 8 11 13 9 7 9 11 15 18 17 18 21 23 24 24 25 27 27 22 19 22 26 16 12 19 15 7 9 13 15 16 14 11 11 12 15 16 17 22 25 25 24 24 23 20 18 16 13 10 8 9 11 12 12 13 13 13 14 14 14 14 14 15 15 15 16 16 16 18 20 22 24 26 28 28 28 28 27 27 26 27 28 30 32 32
9 8 9 11 8 9 12 12 14 15 13 15 19 23 27 26 24 25 23 18 18 22 19 12 13 16 6 4 9 12 14 15 13 12 15 16 19 20 19 20 24 25 24 23 21 18 17 16 14 13 12 13 15 16 16 15 16 16 16 15 15 14 15 16 16 15 15 15 15 16 18 20 22 24 26 27 28 28 27 27 28 28 28 29 29 30
10 9 7 9 9 9 10 12 12 10 7 10 16 23 29 28 23 20 17 19 23 21 13 11 15 11 2 4 8 10 11 14 14 17 20 21 26 30 26 22 23 26 26 24 22 20 18 17 16 17 19 20 20 19 18 17 18 18 17 16 15 16 17 17 16 16 15 14 14 15 16 18 20 21 23 24 24 26 26 27 27 27 28 29 30 30
13 12 7 8 8 6 9 11 8 8 10 13 13 19 25 26 24 21 19 22 23 19 15 16 17 10 2 4 8 10 11 14 17 21 23 23 26 30 31 30 31 30 28 27 26 24 22 22 21 21 22 22 20 19 18 18 18 18 19 18 18 18 18 17 17 16 15 13 13 14 14 16 17 18 18 19 19 21 22 23 24 24 26 27 28 28
16 13 7 8 6 5 9 10 8 11 16 11 6 13 21 23 23 23 22 21 23 24 25 24 21 16 11 9 10 12 15 17 19 23 26 26 27 28 28 29 28 27 26 27 28 28 26 24 22 22 22 20 19 19 19 18 16 16 18 19 18 18 18 17 17 15 15 14 13 13 14 14 14 14 15 18 19 21 22 22 22 24 24 25 27 28
13 12 8 6 6 5 7 9 10 11 8 3 3 9 16 18 19 19 18 21 27 27 24 24 25 22 17 15 14 13 15 18 22 27 28 26 27 30 30 28 26 26 27 27 28 29 28 25 23 22 21 21 20 19 19 17 15 15 17 18 18 18 17 17 16 15 14 14 13 13 13 13 13 14 15 17 19 21 22 23 24 25 23 23 27 29
6 10 9 7 6 6 7 9 9 6 3 5 7 9 12 14 17 18 14 16 22 24 22 24 25 22 20 21 20 17 14 14 17 23 30 34 35 35 33 31 30 30 30 29 29 30 30 29 27 24 22 22 20 18 18 17 15 14 15 16 17 18 18 17 16 15 15 14 13 12 12 13 14 15 16 17 18 20 21 22 23 24 22 22 25 27
3 6 8 8 7 6 8 8 7 5 8 13 14 15 15 12 13 15 10 12 15 22 26 24 20 19 19 19 22 22 16 11 9 16 27 35 36 36 36 37 38 38 37 36 35 34 32 32 30 27 25 24 21 19 19 18 16 14 15 16 16 17 18 17 16 15 15 14 12 11 12 14 15 16 17 19 20 21 21 21 22 23 23 24 25 27
3 3 4 6 5 6 9 9 7 8 13 13 11 14 17 15 13 11 5 13 12 19 25 24 19 19 18 19 24 21 13 10 11 14 21 23 21 23 27 29 30 32 33 32 31 29 28 28 28 27 26 25 23 21 21 20 18 17 17 17 16 16 17 16 15 15 14 13 13 13 14 15 16 17 19 20 22 23 24 24 24 25 26 27 27 29
4 3 4 6 6 9 11 8 5 7 10 6 8 12 21 25 20 12 7 15 10 19 28 26 19 20 25 29 27 16 11 15 14 7 9 12 13 15 17 18 19 20 20 20 20 20 20 21 23 25 25 25 25 23 23 23 22 21 20 19 18 17 16 15 15 15 15 15 15 15 14 15 16 18 20 21 23 24 26 26 27 27 27 27 28 30
6 4 5 7 7 9 11 7 4 7 6 6 10 16 27 29 18 10 13 10 9 19 31 33 30 33 36 34 25 16 20 31 27 15 13 16 18 18 18 18 17 15 14 14 15 15 15 17 19 21 23 24 25 25 26 26 25 23 21 20 19 17 15 14 15 16 16 17 17 16 15 15 16 18 20 22 24 26 27 29 30 31 31 32 33 33
8 5 5 7 6 7 7 4 3 7 7 11 14 21 30 22 9 11 8 6 12 17 24 31 34 34 30 25 23 24 29 34 32 27 28 30 30 30 27 23 19 16 14 13 13 14 15 16 18 20 21 23 24 25 25 26 25 23 22 21 19 17 15 15 16 17 18 18 17 17 17 16 17 18 19 22 24 26 28 29 31 32 33 34 33 33
11 8 6 7 7 6 4 4 5 9 9 23 21 17 20 11 3 8 8 6 12 20 21 24 27 25 22 21 23 27 31 32 32 31 32 33 34 33 30 24 18 15 13 12 13 15 16 17 17 17 18 20 21 22 23 24 24 22 21 19 17 16 15 15 16 17 18 18 17 17 18 18 18 19 20 22 24 25 27 28 29 30 30 30 30 30
10 9 7 6 7 8 6 10 8 6 10 34 26 8 10 5 2 11 14 7 11 19 21 22 21 20 21 21 21 24 27 29 31 32 31 32 33 32 29 25 21 19 16 13 13 14 14 15 15 15 16 17 18 20 21 21 20 19 18 16 15 14 14 14 15 16 17 17 17 16 17 18 18 19 19 21 22 23 24 25 26 27 28 28 28 29
12 14 11 8 11 11 7 8 4 4 14 37 26 13 21 18 5 8 17 15 17 19 19 21 20 18 19 19 19 22 24 25 27 28 28 30 30 29 27 24 23 21 18 15 14 12 11 12 12 13 14 15 16 16 16 16 15 14 13 12 10 9 9 9 10 11 13 14 15 15 15 16 16 17 17 18 19 20 21 22 23 25 26 27 28 29
14 14 7 3 9 10 9 9 5 2 13 32 25 22 39 37 16 10 17 17 21 24 22 21 21 19 19 19 20 23 24 25 25 25 25 25 25 23 22 20 19 19 18 17 15 12 12 13 13 14 14 14 14 13 13 13 12 11 9 7 5 4 3 2 3 5 7 9 11 12 14 15 15 16 17 17 18 19 20 20 21 23 24 26 27 29
11 14 9 5 8 10 12 17 13 5 12 24 21 21 36 38 24 17 18 18 21 24 22 21 20 18 18 20 21 22 22 21 21 20 20 20 20 20 20 19 18 19 19 18 15 13 14 15 15 15 15 14 15 15 14 14 13 11 10 9 7 6 4 3 1 1 2 5 7 9 11 12 14 15 16 17 18 19 19 20 21 23 24 25 27 29
13 19 15 12 13 13 14 16 15 12 16 25 24 22 31 37 31 23 19 19 22 24 23 22 20 20 20 19 18 18 17 17 18 18 17 17 18 19 19 19 19 20 21 20 17 15 16 17 17 18 19 18 18 17 16 15 14 13 12 10 9 8 6 5 3 1 1 2 4 5 7 9 11 13 14 16 17 18 19 20 21 22 23 24 25 27
11 15 15 14 13 12 11 9 13 14 17 25 30 28 29 35 33 25 21 23 24 25 26 24 20 19 18 16 16 17 17 17 17 16 16 18 18 18 19 19 20 21 22 20 18 17 18 20 21 22 21 20 19 18 17 16 14 14 13 12 11 10 8 7 5 3 2 2 3 5 6 7 9 11 12 14 15 16 18 18 19 20 21 21 23 24
10 12 13 12 10 11 15 16 18 16 12 17 27 27 24 29 32 28 28 30 27 24 26 24 21 19 17 17 19 20 18 17 17 17 17 17 17 18 18 19 20 22 22 20 20 20 22 23 23 23 22 21 20 19 17 16 15 14 13 12 11 11 9 8 7 6 5 4 4 5 6 7 9 10 11 12 14 15 16 17 17 19 19 20 21 23
15 17 15 13 13 19 24 24 24 17 7 11 26 32 28 30 35 34 35 37 32 26 24 24 22 21 20 22 23 22 20 19 19 19 18 17 16 17 18 18 20 21 22 22 22 23 24 25 24 24 23 22 21 20 18 17 16 15 14 13 12 12 11 9 9 8 7 7 7 7 8 8 9 10 10 11 13 14 15 16 17 18 19 19 20 21
Wind_Direction
167 158 201 205 190 189 191 198 206 220 225 211 209 222 228 229 233 232 197 148 179 223 234 241 248 254 259 260 259 258 252 250 247 243 246 245 240 235 229 224 227 240 247 243 242 246 249 247 244 242 240 240 237 233 232 230 229 230 230 230 228 227 226 226 228 230 230 231 233 235 237 239 240 240 241 242 242 241 242 243 245 248 249 250 252 253
174 195 211 201 187 186 191 197 204 217 222 214 217 226 230 232 241 237 174 145 163 230 253 254 257 257 260 261 260 259 253 247 244 240 242 244 241 238 233 224 227 241 245 244 248 248 248 247 245 244 241 241 239 234 232 231 230 230 231 232 231 229 228 227 228 230 231 231 232 233 235 238 240 240 241 243 244 245 246 246 246 250 252 253 255 255
188 218 208 192 185 184 190 194 203 214 214 217 223 228 232 231 241 235 155 158 181 222 260 265 267 264 268 267 261 257 252 248 245 243 245 246 245 240 233 226 224 232 237 242 250 251 249 248 247 246 245 243 242 238 235 233 232 231 231 232 232 231 231 231 230 229 231 232 232 234 236 238 241 243 244 246 248 251 253 251 250 255 256 256 256 255
196 213 191 182 181 179 184 193 201 209 208 220 222 222 232 230 236 236 180 182 204 238 273 284 281 274 273 268 260 252 247 248 246 243 244 244 245 243 236 230 224 222 232 240 246 248 250 250 248 246 245 245 243 240 237 234 233 231 230 231 232 232 232 233 233 231 232 234 234 235 238 241 242 245 247 249 250 250 251 251 252 254 253 252 253 251
198 190 176 177 176 174 181 190 196 202 202 222 227 227 233 224 227 237 178 179 217 233 247 287 286 271 262 260 259 250 240 240 243 243 246 242 238 239 237 234 231 227 231 240 244 244 246 249 248 246 245 245 244 242 240 236 234 232 231 231 232 233 233 234 236 235 234 235 235 235 237 240 241 243 245 245 246 245 245 246 248 248 245 245 246 244
202 185 178 180 179 181 185 189 194 195 195 215 225 227 228 222 222 226 197 209 260 244 175 333 285 269 258 260 259 251 235 232 236 239 247 248 237 232 232 230 234 238 240 244 246 242 243 246 247 246 244 244 243 242 241 240 238 237 235 234 233 234 235 236 238 237 236 236 237 237 237 237 238 240 242 243 243 244 244 245 246 245 244 243 242 240
201 187 184 184 181 187 192 196 196 191 202 219 212 215 224 227 222 222 223 242 263 273 111 138 269 278 283 274 270 273 269 259 249 242 243 246 239 231 229 227 232 239 242 245 247 243 241 244 244 243 241 240 240 240 241 241 240 239 238 237 235 235 236 237 238 238 237 237 237 239 239 240 240 241 244 246 247 248 249 250 250 249 248 247 244 239
187 185 188 185 182 188 194 199 196 193 209 215 170 189 219 229 229 233 242 247 267 334 294 223 250 280 274 269 275 276 275 271 261 251 244 240 237 232 229 226 231 238 239 240 245 243 239 241 243 242 240 240 239 239 241 241 240 240 239 238 237 236 237 237 237 238 239 238 238 240 241 242 243 243 245 248 249 250 251 252 252 250 250 249 246 240
177 185 184 184 188 193 196 201 190 191 210 183 140 181 212 221 235 249 244 246 344 357 274 231 202 269 268 257 268 267 265 265 254 246 244 239 237 234 229 226 232 239 239 236 240 243 239 238 241 242 241 241 240 240 241 242 241 240 239 238 238 237 237 238 237 238 239 240 240 241 242 243 244 244 245 247 248 249 250 250 251 251 250 249 246 241
174 188 183 184 192 196 198 201 188 191 204 143 128 129 122 96 64 31 243 190 48 290 260 216 177 241 277 254 245 256 254 256 254 245 243 238 234 233 230 225 230 239 240 235 235 239 240 238 239 242 244 243 242 241 241 242 242 240 238 237 237 236 236 237 238 238 239 240 240 241 242 243 245 245 244 244 245 247 248 248 249 249 248 247 243 240
103 166 187 189 197 201 195 193 192 193 177 134 123 103 85 69 65 62 33 72 292 259 233 184 178 210 279 253 201 236 248 252 261 253 242 236 230 233 234 228 230 238 241 237 234 236 241 242 239 240 242 242 243 242 241 241 240 239 237 236 236 236 236 237 238 238 239 239 239 240 242 243 244 245 243 242 243 243 245 247 247 247 246 244 242 241
136 150 192 186 205 206 182 153 177 175 155 139 138 132 118 85 75 82 73 119 232 250 168 173 182 195 243 242 180 232 252 257 266 257 248 240 230 235 236 230 234 241 243 240 235 234 238 242 238 237 240 240 241 242 240 239 238 237 235 234 235 235 236 237 237 238 237 238 239 239 240 242 243 244 244 244 243 242 242 245 246 245 244 243 242 241
161 172 177 131 212 199 157 110 111 148 157 167 168 164 168 161 164 207 206 188 230 239 105 179 188 204 241 254 243 251 260 258 256 259 262 260 250 248 244 239 241 245 246 242 235 232 235 238 237 237 239 240 241 242 241 238 236 236 234 232 233 234 235 236 237 238 237 237 238 239 240 241 242 243 244 244 244 242 242 243 244 244 244 244 242 238
161 179 175 153 182 185 164 148 161 165 181 189 181 181 188 174 187 215 208 214 239 216 151 177 169 244 261 267 248 244 252 254 258 268 269 265 259 258 255 248 243 244 246 242 234 230 233 237 238 238 239 241 243 242 241 240 236 235 234 232 232 233 234 236 237 239 239 239 239 240 240 241 242 243 243 244 244 243 243 243 243 244 246 246 244 238
165 187 181 171 168 183 186 182 160 139 171 191 189 195 201 186 195 213 201 217 229 177 163 176 174 235 242 302 253 241 253 256 261 270 269 264 258 256 254 250 247 247 249 244 236 232 232 235 237 239 240 242 244 243 242 241 238 235 235 233 233 233 235 237 238 240 241 241 241 241 241 242 243 243 244 244 243 242 243 243 242 243 245 246 243 238
185 202 168 164 154 176 184 171 135 124 154 195 169 200 215 212 209 213 182 216 218 221 189 192 230 250 248 299 300 280 281 259 248 251 251 254 253 250 250 251 252 253 253 250 244 239 236 236 239 241 244 244 245 245 244 243 239 237 236 235 235 234 235 237 239 241 242 242 242 242 242 243 244 244 243 242 241 241 241 242 243 243 244 244 241 237
192 179 147 152 163 174 171 152 148 149 163 172 178 200 205 262 239 231 225 84 93 260 234 201 242 261 274 285 264 243 253 249 239 237 232 239 247 247 247 251 253 254 257 257 254 252 250 248 249 249 250 250 248 247 247 247 245 240 238 237 237 237 237 237 239 240 241 242 242 242 242 243 244 244 243 242 241 241 241 241 242 243 242 241 240 236
178 134 91 139 146 175 158 145 156 173 165 160 189 184 108 31 300 245 230 197 193 248 244 215 240 249 253 272 231 212 232 241 243 240 229 231 238 241 245 249 249 248 254 260 261 261 261 260 260 259 258 257 255 253 251 251 252 249 244 241 240 240 239 240 241 242 242 242 242 243 243 243 243 243 243 243 242 241 241 241 242 241 240 241 240 235
151 110 26 142 121 154 137 136 159 274 252 213 190 162 150 208 212 196 221 218 207 234 250 237 245 248 234 241 236 207 220 228 240 238 226 228 232 235 243 246 249 255 263 267 267 265 264 264 263 262 260 258 258 259 256 253 254 255 252 248 246 244 243 242 243 244 244 243 242 243 243 243 242 241 241 241 240 240 241 241 242 240 238 241 240 234
155 134 139 191 72 150 154 152 182 209 211 257 211 173 191 230 204 199 211 224 226 231 249 256 250 246 236 237 241 237 224 212 219 221 223 233 231 229 236 246 262 279 283 276 269 267 266 265 264 261 257 255 254 257 260 257 254 254 255 253 251 249 246 244 243 243 244 244 244 243 242 242 240 240 240 238 236 239 241 242 241 239 238 241 240 234
156 160 141 129 122 162 176 188 191 186 175 185 191 185 195 192 131 237 217 222 247 236 245 265 260 255 249 231 225 224 226 229 233 241 243 239 231 228 237 259 274 281 282 278 275 273 270 269 268 262 253 248 248 250 255 259 256 253 253 254 254 253 251 249 247 245 245 244 244 243 242 241 240 239 238 234 233 237 241 242 240 239 239 242 240 235
165 168 142 146 183 177 191 271 225 195 181 180 190 187 187 170 144 210 217 212 224 238 249 265 272 267 211 142 194 208 226 235 236 248 247 237 240 246 249 263 274 276 278 282 282 280 276 273 272 268 255 244 241 242 247 253 254 253 252 253 254 254 253 253 251 250 249 248 246 245 243 242 240 238 236 234 233 236 240 241 241 242 243 243 239 234
98 123 134 149 174 158 100 8 340 267 189 187 207 199 192 180 173 200 216 203 191 229 252 274 283 272 150 128 176 208 240 249 114 211 237 228 236 251 259 265 274 282 290 298 295 288 284 277 274 275 269 255 244 240 242 245 246 248 249 250 251 252 252 253 253 253 253 252 251 248 246 244 242 240 239 238 237 238 240 241 243 244 243 241 237 233
100 115 131 128 140 94 45 86 24 336 201 191 212 207 200 196 193 200 215 195 199 220 224 238 259 257 163 109 97 65 61 61 99 157 200 206 236 244 242 245 9 7 2 355 339 319 300 286 279 277 277 273 261 249 244 244 244 245 246 248 250 251 252 253 253 253 253 253 253 252 250 248 246 244 243 242 242 242 241 243 244 243 241 238 234 231
164 148 141 133 142 156 129 162 199 233 219 207 204 200 199 197 195 198 203 234 235 225 218 223 244 252 204 102 156 137 124 186 182 186 212 219 215 168 160 137 71 31 22 15 7 356 331 305 288 280 280 281 277 266 255 249 247 248 249 249 250 250 252 252 253 254 254 253 252 250 248 247 246 245 245 244 244 242 241 241 241 240 237 234 232 230
173 172 163 159 169 177 183 194 192 187 195 206 197 195 201 198 193 197 199 202 225 227 223 227 247 259 245 143 180 178 158 185 198 203 229 223 204 195 194 204 276 346 3 9 8 4 355 333 303 284 280 279 273 267 259 251 248 249 249 249 250 251 252 254 256 256 255 254 252 249 248 247 246 245 245 244 242 241 240 239 238 236 233 231 230 229
171 185 185 187 188 186 182 127 108 115 137 175 184 189 200 201 200 206 205 212 224 229 234 236 243 254 248 202 187 182 177 195 206 203 207 209 207 211 219 234 263 298 317 337 354 1 3 356 334 302 282 278 271 261 253 249 248 247 248 251 253 256 258 260 261 260 258 257 254 252 251 249 248 247 246 245 243 241 240 238 236 234 231 229 228 228
163 192 194 201 202 192 159 132 128 136 161 178 178 184 190 190 196 207 215 220 220 219 238 235 229 242 252 235 209 196 189 196 204 201 200 204 211 222 234 250 274 296 304 313 330 348 359 1 356 344 317 297 286 277 267 262 260 258 259 260 261 264 265 265 265 263 262 260 257 255 253 249 248 247 245 244 243 240 238 237 235 232 231 229 227 228
178 201 195 198 198 177 154 156 151 156 173 176 176 185 186 184 190 200 214 219 209 203 229 232 217 230 247 244 224 214 206 201 202 203 206 209 217 230 247 266 281 288 295 302 307 320 339 350 356 360 354 337 317 305 293 284 279 275 273 272 270 270 268 265 265 264 262 261 259 258 255 252 249 246 244 242 239 237 235 234 232 232 231 229 228 229
190 200 191 193 197 182 167 167 164 167 171 176 186 191 187 188 194 202 215 218 207 215 231 233 224 235 244 247 238 233 226 216 207 203 209 225 237 246 260 271 276 281 288 292 291 292 302 318 333 341 344 341 331 321 311 303 294 284 279 276 272 270 268 265 264 263 261 260 258 257 255 253 251 247 243 240 236 233 231 230 231 232 230 229 229 229
199 194 183 187 200 202 190 182 176 175 173 180 191 194 192 194 199 207 219 216 206 225 236 237 256 259 253 241 240 244 235 222 213 206 213 232 246 253 262 266 271 277 282 285 285 285 290 297 301 302 311 322 322 314 308 303 298 287 277 272 270 270 269 267 265 264 263 261 259 256 253 251 250 248 244 241 237 233 229 227 229 229 230 233 232 230
196 194 179 178 199 209 196 189 183 178 177 188 196 197 196 198 202 209 217 211 206 224 232 231 250 258 249 181 221 235 230 223 224 229 234 245 251 252 251 254 263 271 276 280 282 285 293 296 288 280 286 302 310 310 303 294 289 284 277 270 268 267 265 265 265 265 265 264 263 259 254 250 247 245 243 241 238 235 230 226 225 225 228 231 230 233
190 192 176 173 199 206 183 179 177 163 168 202 205 200 199 201 206 211 215 213 213 219 217 212 231 241 91 121 211 218 215 219 227 234 237 244 250 254 255 253 262 270 272 276 281 284 290 291 282 277 284 292 300 305 302 291 284 281 275 268 261 257 258 260 261 263 266 268 268 263 256 249 243 240 240 238 235 234 230 227 225 223 224 227 229 231
191 196 182 177 195 180 148 149 149 165 204 222 210 197 199 202 204 208 215 215 214 218 221 225 237 244 171 167 205 213 215 223 231 233 233 237 243 252 258 258 261 266 268 271 276 279 283 285 283 283 286 289 293 297 296 291 286 282 275 268 259 255 256 259 260 263 265 266 268 264 258 250 241 236 233 229 230 230 227 223 222 222 224 227 226 226
189 190 184 186 185 147 137 141 158 206 221 223 183 177 192 201 203 210 221 219 212 216 224 231 240 239 222 213 219 226 229 233 241 240 235 234 238 244 252 254 255 257 261 266 270 274 278 282 284 285 286 286 288 291 292 289 285 282 276 269 263 258 256 257 258 260 261 263 264 263 257 251 242 232 223 220 224 226 222 219 219 220 225 225 223 228
193 186 183 182 163 142 147 163 194 219 223 203 140 164 180 191 197 207 224 225 215 214 218 226 233 233 230 232 228 223 231 242 250 248 240 233 233 238 245 249 250 252 257 262 266 272 277 281 281 281 281 282 282 285 288 282 277 279 276 270 264 258 254 255 255 255 256 257 258 259 256 251 242 230 217 216 220 220 219 221 220 218 221 224 225 226
212 196 188 177 167 165 171 189 214 246 273 233 218 184 174 182 188 194 219 232 217 212 216 223 227 228 228 233 231 224 232 249 257 252 244 238 236 237 243 249 252 255 258 261 265 270 276 279 278 276 276 277 277 278 279 272 267 273 276 271 264 257 253 255 256 257 255 251 253 256 254 247 241 229 217 213 216 218 218 221 220 217 219 224 223 218
276 222 196 188 190 175 170 192 217 239 240 228 210 190 184 185 179 182 218 247 217 206 215 222 224 224 225 231 230 226 231 247 258 254 250 247 243 243 248 255 259 260 261 263 266 270 274 277 275 273 273 273 272 272 270 265 263 270 275 272 266 258 254 254 257 258 256 252 250 251 247 243 239 232 224 218 217 220 221 220 220 220 225 229 228 223
260 256 220 203 199 173 176 195 199 215 236 229 197 180 178 166 137 127 212 254 222 193 204 213 214 216 219 224 223 217 218 237 249 254 254 253 251 250 253 259 263 264 264 265 269 270 271 271 269 267 267 266 266 266 265 263 263 267 272 270 265 260 256 254 255 255 255 252 246 243 242 240 238 234 230 225 221 221 222 222 223 227 230 231 230 227
194 210 212 206 198 183 189 201 201 231 249 211 158 162 161 150 129 119 221 247 208 178 194 201 204 211 215 220 220 208 203 223 229 234 241 246 254 257 259 263 265 266 266 268 270 268 265 265 262 261 261 259 259 259 260 260 259 261 265 263 259 258 256 251 249 248 247 245 240 238 239 238 238 236 233 230 227 226 226 226 227 229 229 229 228 230
184 189 192 197 199 190 193 201 222 254 248 164 152 155 147 140 139 175 223 225 160 180 195 191 194 209 214 215 215 207 216 226 229 235 247 255 261 262 264 268 266 265 268 269 269 264 259 259 258 256 255 254 253 252 252 252 254 256 258 254 251 252 249 242 239 238 239 239 238 237 238 236 237 237 234 233 232 232 232 232 232 232 233 234 236 238
180 183 186 193 195 191 200 204 232 259 219 155 150 154 150 149 179 207 202 125 137 181 195 187 194 208 210 209 213 217 227 234 239 247 252 255 259 261 263 265 264 265 269 268 263 257 252 253 252 250 249 248 248 248 247 247 250 251 248 244 243 245 243 237 234 234 236 237 236 236 237 236 235 234 232 231 232 233 234 235 234 235 236 237 239 240
177 170 181 197 185 176 203 192 211 259 195 150 147 162 169 177 203 150 123 102 158 174 178 184 199 207 203 208 219 226 235 242 244 248 250 251 255 257 256 257 258 260 264 262 257 252 246 245 243 240 241 241 240 242 243 243 243 241 237 236 237 239 238 234 231 232 233 235 236 235 236 236 234 233 230 230 231 233 234 235 235 235 236 237 238 238
178 171 176 195 183 175 194 189 200 279 167 152 151 164 180 185 67 131 137 140 168 168 164 172 189 198 198 207 219 226 235 241 242 244 245 245 249 250 250 252 252 251 252 249 245 239 232 230 228 224 226 228 229 232 234 234 234 232 232 233 234 235 237 236 235 236 237 238 240 239 239 239 237 237 236 235 235 237 237 237 237 236 237 238 238 238
191 191 187 191 192 193 212 202 200 346 162 165 163 152 165 182 228 167 158 153 162 171 164 159 166 176 180 190 205 214 222 227 230 235 237 238 243 246 248 250 247 243 240 231 225 224 219 218 215 212 215 217 219 222 223 220 220 218 219 222 224 229 239 244 247 250 249 250 249 247 246 245 243 244 244 243 244 245 245 244 242 240 240 240 240 240
200 197 192 195 198 210 251 248 233 18 174 179 178 168 177 190 205 187 179 177 172 172 165 157 161 166 171 182 196 208 216 221 226 233 237 238 241 242 241 241 235 228 222 216 217 220 217 215 213 210 209 206 201 199 194 191 190 185 182 178 170 175 193 220 249 260 258 257 256 252 249 248 246 245 245 245 247 247 247 248 248 247 247 246 244 244
201 196 200 207 185 194 236 236 217 187 185 191 189 179 186 196 202 195 196 194 181 175 170 167 168 169 174 185 196 206 215 219 222 227 229 230 231 229 227 226 220 211 208 210 216 218 212 211 207 198 188 180 174 170 166 165 162 156 151 146 140 138 130 120 126 253 266 265 263 258 255 252 248 246 244 243 245 245 246 246 246 246 246 246 246 246
192 191 197 208 197 198 226 225 198 185 199 202 200 194 194 201 207 207 201 193 187 187 183 178 178 178 180 188 198 204 207 206 207 211 211 213 217 218 217 217 210 202 202 207 213 211 203 196 187 177 169 165 162 161 159 157 155 152 150 148 145 143 138 133 136 129 302 289 284 274 266 262 255 251 248 245 245 246 246 247 247 248 249 250 250 250
159 178 193 205 209 217 232 209 167 177 206 209 206 202 199 200 204 203 200 201 201 198 191 185 181 182 184 190 194 194 194 197 201 205 206 208 210 210 210 209 202 199 202 206 206 201 193 183 176 171 168 166 164 163 163 162 160 158 157 155 153 152 152 155 160 167 206 258 279 280 277 274 267 261 257 253 249 249 249 249 251 253 254 254 254 254
145 182 197 198 201 219 225 202 179 186 210 207 203 203 200 201 203 201 203 210 211 203 196 191 186 185 188 189 188 188 193 200 202 203 206 209 208 206 205 203 199 198 200 201 199 195 189 182 178 176 174 172 171 171 171 172 170 169 167 166 166 165 165 168 172 181 200 221 245 262 269 272 270 266 262 258 254 253 253 252 252 252 253 252 252 252
186 193 191 188 199 218 220 203 189 197 211 180 190 200 202 202 204 205 209 215 215 207 202 197 192 190 189 188 188 191 198 202 201 200 201 201 202 204 204 202 200 199 197 195 195 194 191 187 185 183 182 181 181 181 181 181 181 180 180 180 179 179 179 180 184 192 203 215 227 241 251 257 262 263 262 260 257 255 254 253 252 251 251 250 249 249
Height
1521 1527 1528 1524 1522 1523 1523 1523 1524 1524 1523 1524 1527 1529 1525 1525 1526 1520 1522 1528 1529 1531 1530 1527 1527 1524 1520 1519 1519 1520 1521 1521 1521 1522 1522 1522 1522 1522 1522 1523 1524 1525 1526 1528 1529 1530 1531 1532 1533 1534 1535 1536 1538 1539 1540 1541 1542 1543 1545 1546 1547 1549 1552 1553 1555 1556 1558 1559 1560 1561 1562 1563 1564 1565 1566 1567 1568 1568 1569 1570 1570 1570 1572 1572 1572 1573
1521 1523 1518 1515 1517 1519 1521 1522 1523 1524 1524 1525 1526 1526 1524 1524 1523 1518 1522 1528 1529 1532 1529 1524 1524 1521 1517 1516 1516 1517 1518 1517 1517 1517 1517 1517 1518 1519 1519 1520 1520 1521 1523 1525 1526 1527 1528 1528 1530 1531 1531 1532 1533 1535 1537 1537 1538 1540 1541 1542 1544 1546 1548 1549 1551 1553 1554 1555 1557 1558 1559 1560 1561 1562 1563 1564 1565 1566 1567 1568 1568 1568 1570 1570 1570 1571
1521 1515 1508 1510 1515 1518 1520 1520 1522 1523 1525 1526 1524 1525 1525 1522 1520 1519 1523 1527 1529 1532 1528 1523 1523 1519 1513 1512 1513 1514 1513 1513 1512 1513 1514 1514 1515 1515 1516 1516 1517 1518 1519 1521 1523 1523 1524 1525 1526 1527 1528 1529 1530 1531 1533 1534 1535 1536 1537 1538 1540 1542 1544 1545 1547 1549 1550 1552 1554 1555 1556 1558 1559 1560 1561 1562 1562 1563 1565 1565 1565 1566 1568 1568 1568 1569
1512 1505 1503 1509 1512 1516 1520 1521 1522 1523 1526 1527 1525 1526 1524 1519 1521 1523 1525 1528 1529 1529 1527 1525 1523 1518 1513 1509 1508 1508 1508 1507 1508 1508 1509 1510 1511 1512 1513 1513 1513 1515 1516 1516 1519 1520 1520 1521 1522 1523 1524 1525 1527 1528 1529 1530 1531 1532 1533 1534 1536 1538 1540 1541 1543 1545 1547 1549 1551 1553 1554 1555 1556 1557 1558 1558 1559 1561 1561 1562 1562 1563 1565 1565 1566 1566
1501 1498 1502 1507 1510 1513 1518 1520 1522 1525 1529 1528 1526 1525 1521 1518 1522 1524 1527 1529 1528 1528 1527 1528 1526 1516 1508 1505 1501 1500 1501 1502 1503 1504 1504 1505 1506 1508 1509 1510 1510 1511 1512 1513 1514 1516 1516 1517 1518 1519 1521 1522 1523 1524 1525 1526 1527 1528 1530 1531 1533 1534 1536 1537 1539 1542 1544 1546 1548 1549 1550 1552 1552 1553 1553 1554 1555 1556 1558 1558 1559 1560 1561 1562 1563 1564
1496 1495 1499 1504 1507 1509 1514 1518 1520 1524 1529 1528 1524 1521 1519 1519 1521 1523 1529 1532 1532 1530 1527 1530 1533 1516 1500 1498 1496 1494 1496 1497 1498 1500 1501 1501 1501 1504 1504 1504 1505 1506 1508 1509 1510 1512 1513 1512 1514 1515 1517 1518 1519 1520 1521 1522 1524 1526 1527 1528 1529 1531 1532 1534 1535 1537 1540 1541 1543 1544 1545 1546 1547 1548 1548 1548 1550 1553 1554 1555 1556 1557 1558 1559 1560 1562
1491 1492 1495 1500 1505 1507 1511 1514 1514 1517 1525 1525 1519 1518 1519 1519 1521 1524 1529 1534 1534 1533 1529 1531 1536 1525 1507 1499 1496 1495 1496 1495 1496 1496 1496 1497 1497 1497 1497 1497 1498 1499 1502 1505 1506 1508 1509 1508 1509 1510 1511 1513 1514 1516 1518 1519 1521 1523 1524 1525 1526 1527 1528 1530 1531 1532 1534 1536 1538 1539 1540 1541 1543 1543 1543 1544 1547 1550 1551 1552 1553 1554 1555 1556 1557 1559
1486 1491 1494 1496 1501 1505 1508 1509 1509 1512 1520 1520 1515 1519 1523 1521 1524 1526 1529 1534 1533 1533 1533 1529 1534 1535 1520 1506 1498 1497 1498 1495 1494 1492 1490 1491 1491 1490 1491 1491 1491 1493 1495 1499 1501 1502 1504 1504 1504 1505 1507 1508 1510 1512 1514 1516 1518 1519 1520 1522 1523 1524 1525 1526 1527 1527 1529 1531 1533 1534 1535 1537 1538 1539 1540 1542 1544 1546 1547 1548 1549 1551 1552 1553 1554 1556
1483 1488 1491 1494 1500 1503 1504 1504 1506 1511 1517 1518 1517 1520 1522 1523 1526 1526 1529 1535 1537 1541 1540 1529 1534 1539 1520 1503 1497 1494 1495 1493 1487 1486 1485 1485 1486 1485 1486 1487 1486 1487 1489 1492 1495 1497 1499 1500 1500 1501 1503 1505 1507 1509 1510 1512 1514 1515 1517 1518 1518 1520 1521 1522 1523 1523 1524 1526 1529 1530 1531 1532 1533 1535 1537 1538 1540 1542 1543 1544 1545 1547 1548 1549 1551 1553
1486 1487 1489 1493 1499 1501 1501 1502 1504 1509 1515 1518 1519 1520 1523 1526 1529 1532 1535 1539 1544 1548 1541 1530 1534 1538 1516 1495 1495 1492 1488 1485 1479 1478 1479 1478 1480 1480 1481 1483 1481 1481 1483 1486 1490 1492 1494 1496 1497 1498 1499 1501 1503 1505 1507 1508 1510 1511 1512 1513 1514 1515 1517 1517 1519 1520 1520 1522 1524 1525 1526 1527 1528 1530 1532 1534 1535 1537 1538 1539 1541 1542 1544 1546 1547 1549
1488 1489 1491 1492 1496 1497 1498 1502 1504 1507 1513 1516 1519 1523 1529 1533 1536 1540 1541 1543 1549 1545 1534 1526 1528 1536 1523 1494 1486 1486 1478 1475 1474 1474 1473 1473 1475 1477 1477 1479 1478 1478 1479 1481 1484 1487 1490 1492 1493 1495 1495 1497 1499 1500 1503 1504 1505 1507 1507 1508 1510 1511 1512 1513 1514 1515 1516 1518 1519 1521 1521 1522 1524 1525 1527 1529 1530 1532 1532 1533 1535 1538 1540 1541 1542 1544
1490 1493 1494 1491 1494 1494 1497 1504 1506 1508 1511 1514 1518 1523 1532 1540 1543 1546 1548 1550 1551 1538 1527 1523 1521 1532 1527 1495 1479 1477 1469 1469 1471 1471 1470 1470 1471 1473 1474 1475 1475 1475 1475 1477 1480 1482 1486 1488 1488 1490 1491 1493 1494 1495 1498 1499 1501 1502 1503 1504 1505 1507 1508 1509 1510 1511 1512 1514 1514 1516 1517 1518 1519 1520 1521 1523 1525 1527 1527 1528 1531 1533 1535 1536 1538 1540
1492 1492 1491 1492 1494 1492 1496 1506 1512 1512 1512 1513 1517 1521 1531 1542 1547 1548 1549 1549 1544 1534 1528 1523 1522 1525 1512 1486 1477 1475 1468 1468 1469 1469 1470 1469 1470 1471 1472 1472 1472 1472 1472 1473 1475 1478 1481 1483 1484 1485 1487 1489 1490 1491 1493 1495 1496 1497 1498 1500 1501 1502 1504 1505 1505 1506 1508 1509 1510 1511 1512 1513 1514 1515 1516 1517 1519 1521 1522 1524 1526 1527 1529 1531 1533 1535
1494 1494 1492 1493 1495 1491 1492 1502 1511 1512 1510 1510 1512 1517 1523 1534 1545 1546 1542 1541 1536 1532 1529 1524 1526 1523 1501 1479 1474 1471 1467 1466 1467 1469 1469 1468 1469 1470 1470 1470 1470 1469 1470 1470 1472 1474 1476 1479 1481 1482 1483 1484 1485 1487 1488 1490 1491 1493 1494 1495 1497 1498 1500 1501 1501 1502 1504 1505 1506 1507 1508 1509 1510 1511 1511 1513 1514 1516 1517 1519 1521 1522 1524 1526 1528 1530
1489 1492 1490 1489 1490 1489 1488 1492 1498 1502 1507 1508 1505 1510 1513 1516 1527 1530 1527 1530 1527 1526 1529 1529 1525 1513 1493 1476 1468 1466 1465 1466 1467 1467 1468 1468 1468 1468 1468 1468 1468 1467 1468 1468 1470 1471 1473 1475 1477 1478 1479 1480 1481 1482 1483 1485 1486 1488 1489 1491 1492 1494 1496 1497 1498 1499 1500 1501 1502 1503 1504 1505 1506 1507 1508 1509 1510 1511 1512 1514 1515 1517 1519 1521 1523 1526
1481 1484 1484 1485 1484 1485 1488 1490 1493 1500 1511 1511 1507 1511 1511 1504 1507 1513 1517 1517 1516 1520 1524 1525 1514 1492 1477 1469 1464 1467 1466 1464 1466 1466 1466 1468 1466 1466 1467 1465 1465 1465 1465 1467 1467 1469 1470 1472 1473 1474 1475 1476 1477 1478 1479 1480 1481 1483 1485 1486 1488 1490 1492 1493 1494 1495 1496 1497 1498 1499 1500 1501 1502 1503 1504 1505 1506 1507 1508 1509 1511 1513 1514 1516 1518 1521
1475 1482 1485 1486 1485 1485 1488 1490 1490 1498 1507 1510 1513 1513 1507 1500 1500 1509 1518 1515 1516 1519 1510 1506 1502 1486 1478 1469 1459 1464 1465 1461 1464 1463 1462 1465 1464 1464 1464 1462 1463 1463 1463 1464 1465 1466 1468 1469 1470 1471 1472 1473 1473 1474 1475 1476 1477 1478 1480 1482 1483 1485 1487 1488 1489 1491 1492 1493 1494 1495 1496 1497 1498 1499 1500 1501 1502 1503 1504 1506 1507 1509 1510 1511 1513 1516
1464 1483 1490 1487 1489 1489 1487 1490 1492 1494 1497 1505 1512 1507 1502 1507 1506 1508 1516 1516 1520 1521 1502 1493 1494 1488 1487 1474 1454 1456 1461 1458 1459 1459 1459 1461 1461 1462 1461 1460 1461 1461 1462 1462 1462 1464 1465 1466 1467 1467 1469 1470 1470 1471 1471 1472 1473 1474 1476 1477 1479 1480 1482 1484 1485 1486 1488 1488 1490 1491 1492 1493 1494 1496 1497 1498 1499 1500 1501 1502 1503 1504 1505 1506 1509 1512
1457 1482 1496 1490 1491 1492 1489 1493 1499 1498 1495 1498 1501 1497 1500 1511 1512 1509 1514 1513 1516 1518 1504 1492 1488 1483 1481 1470 1455 1456 1458 1456 1456 1456 1457 1458 1457 1458 1457 1458 1459 1459 1460 1460 1460 1461 1461 1462 1463 1463 1464 1465 1466 1467 1467 1468 1469 1470 1472 1473 1475 1476 1477 1479 1480 1481 1483 1484 1485 1486 1487 1489 1490 1491 1493 1494 1495 1496 1496 1497 1499 1501 1501 1502 1505 1508
1452 1471 1491 1493 1492 1493 1491 1493 1498 1498 1497 1498 1497 1495 1495 1500 1502 1502 1503 1503 1505 1509 1503 1494 1487 1476 1465 1456 1454 1456 1454 1453 1454 1453 1454 1454 1454 1455 1455 1456 1457 1457 1458 1458 1458 1458 1458 1458 1459 1459 1460 1461 1462 1464 1464 1465 1465 1466 1468 1469 1471 1473 1473 1474 1475 1476 1478 1479 1480 1481 1482 1484 1485 1486 1488 1490 1491 1491 1492 1494 1495 1497 1498 1499 1502 1505
1451 1460 1482 1495 1494 1493 1491 1487 1485 1486 1491 1496 1497 1496 1496 1497 1498 1498 1497 1496 1499 1503 1501 1497 1488 1468 1449 1444 1447 1449 1449 1449 1450 1450 1451 1451 1452 1453 1454 1455 1456 1456 1457 1457 1456 1456 1455 1455 1455 1455 1456 1457 1458 1460 1461 1462 1462 1463 1465 1466 1468 1469 1469 1470 1471 1472 1472 1473 1474 1475 1476 1479 1480 1481 1483 1485 1487 1487 1488 1491 1492 1493 1495 1496 1499 1502
1450 1456 1475 1493 1493 1490 1488 1483 1480 1480 1483 1488 1489 1490 1493 1495 1499 1504 1503 1496 1496 1500 1497 1497 1491 1464 1443 1442 1443 1444 1447 1446 1447 1449 1449 1450 1452 1453 1454 1455 1455 1455 1456 1455 1454 1454 1454 1453 1453 1453 1453 1454 1454 1456 1457 1458 1460 1461 1462 1463 1464 1465 1466 1466 1467 1467 1468 1468 1469 1470 1471 1473 1475 1477 1479 1481 1483 1484 1486 1487 1489 1490 1492 1495 1497 1498
1447 1455 1471 1485 1486 1484 1485 1483 1483 1481 1479 1482 1485 1485 1488 1492 1494 1500 1502 1494 1496 1500 1494 1497 1496 1465 1441 1443 1444 1444 1446 1446 1447 1449 1448 1450 1452 1452 1453 1453 1454 1454 1454 1454 1453 1452 1452 1451 1451 1451 1451 1451 1451 1452 1453 1454 1456 1457 1458 1459 1460 1460 1461 1462 1463 1464 1464 1465 1466 1467 1468 1470 1471 1474 1476 1478 1480 1481 1482 1484 1485 1488 1490 1492 1494 1496
1447 1456 1471 1483 1484 1483 1483 1481 1482 1483 1483 1485 1484 1481 1481 1483 1483 1486 1490 1491 1495 1497 1493 1501 1498 1464 1440 1443 1445 1445 1447 1447 1448 1449 1449 1451 1451 1451 1453 1452 1453 1453 1452 1452 1451 1450 1450 1449 1449 1449 1449 1449 1449 1450 1451 1451 1452 1454 1454 1455 1456 1457 1458 1458 1459 1460 1461 1462 1463 1465 1466 1467 1469 1471 1472 1474 1476 1478 1479 1481 1483 1485 1488 1490 1491 1493
1444 1452 1464 1480 1488 1488 1487 1487 1486 1485 1483 1477 1474 1474 1474 1476 1479 1484 1488 1492 1494 1490 1486 1494 1488 1456 1440 1444 1445 1445 1448 1447 1448 1449 1448 1450 1450 1451 1452 1451 1452 1452 1451 1451 1450 1449 1449 1448 1447 1447 1447 1448 1448 1448 1449 1449 1450 1451 1451 1452 1453 1453 1454 1455 1456 1457 1458 1459 1460 1462 1464 1465 1466 1468 1469 1471 1473 1474 1476 1478 1480 1483 1484 1486 1488 1490
1440 1444 1450 1462 1470 1470 1470 1469 1466 1466 1470 1470 1469 1472 1473 1475 1480 1484 1489 1496 1495 1485 1480 1484 1473 1449 1440 1445 1445 1444 1446 1446 1447 1448 1448 1449 1450 1450 1450 1450 1450 1449 1449 1449 1449 1448 1448 1447 1446 1446 1446 1446 1446 1447 1447 1447 1448 1449 1449 1450 1451 1451 1452 1453 1454 1455 1456 1457 1458 1459 1461 1462 1464 1465 1467 1468 1470 1471 1473 1475 1477 1479 1481 1483 1485 1487
1437 1439 1441 1445 1445 1443 1445 1446 1444 1450 1464 1472 1473 1474 1475 1477 1480 1484 1490 1492 1485 1481 1482 1477 1465 1451 1442 1442 1443 1442 1443 1444 1444 1446 1447 1447 1448 1448 1448 1449 1448 1448 1448 1448 1448 1448 1447 1446 1446 1445 1446 1446 1446 1446 1447 1447 1447 1448 1448 1449 1450 1450 1451 1452 1452 1453 1454 1455 1455 1456 1458 1459 1461 1462 1464 1466 1467 1469 1470 1472 1474 1475 1477 1480 1482 1484
1436 1439 1438 1439 1438 1437 1439 1442 1444 1450 1462 1469 1471 1473 1474 1476 1481 1485 1488 1481 1477 1486 1484 1463 1455 1455 1441 1434 1440 1441 1440 1442 1442 1443 1445 1445 1446 1447 1447 1447 1447 1447 1447 1447 1447 1447 1447 1447 1446 1446 1446 1446 1446 1447 1447 1447 1448 1448 1448 1448 1449 1449 1450 1450 1450 1451 1451 1452 1453 1454 1454 1456 1457 1458 1460 1462 1463 1465 1467 1468 1470 1472 1475 1477 1479 1481
1432 1437 1436 1437 1440 1438 1437 1440 1442 1449 1456 1463 1467 1469 1468 1471 1476 1478 1475 1466 1467 1476 1465 1443 1446 1451 1434 1428 1437 1439 1438 1440 1440 1441 1443 1443 1444 1445 1445 1446 1446 1446 1446 1446 1446 1446 1446 1446 1446 1446 1446 1446 1446 1447 1447 1447 1447 1447 1447 1447 1448 1448 1448 1448 1448 1448 1449 1449 1450 1451 1452 1453 1454 1455 1457 1458 1459 1461 1463 1465 1468 1470 1472 1474 1476 1479
1428 1433 1433 1437 1441 1439 1438 1439 1440 1445 1453 1459 1462 1463 1464 1466 1468 1466 1460 1454 1458 1459 1445 1438 1446 1440 1426 1427 1435 1435 1436 1439 1438 1440 1441 1442 1442 1443 1443 1444 1443 1444 1444 1444 1444 1444 1445 1446 1445 1445 1445 1445 1446 1446 1446 1446 1446 1446 1446 1446 1446 1446 1446 1446 1446 1446 1447 1447 1447 1448 1449 1450 1451 1452 1453 1454 1456 1458 1460 1462 1465 1467 1470 1472 1474 1476
1427 1430 1430 1434 1441 1442 1441 1439 1438 1441 1448 1453 1456 1457 1459 1462 1463 1459 1451 1449 1457 1452 1439 1444 1451 1436 1422 1427 1432 1433 1435 1436 1437 1438 1439 1439 1440 1440 1441 1441 1440 1441 1441 1441 1441 1442 1442 1444 1445 1445 1445 1445 1445 1445 1445 1445 1444 1444 1444 1444 1444 1444 1444 1445 1445 1445 1445 1445 1445 1446 1446 1447 1448 1449 1450 1452 1453 1455 1457 1460 1462 1465 1467 1469 1471 1473
1424 1427 1427 1433 1441 1441 1439 1440 1439 1438 1443 1450 1452 1452 1452 1452 1450 1445 1441 1444 1450 1445 1444 1456 1454 1431 1418 1424 1430 1431 1433 1433 1434 1435 1435 1436 1437 1437 1437 1438 1438 1438 1438 1438 1439 1440 1441 1442 1442 1443 1443 1443 1443 1444 1443 1443 1443 1442 1442 1442 1442 1442 1442 1442 1442 1443 1443 1443 1444 1444 1444 1445 1446 1447 1448 1450 1451 1453 1455 1457 1459 1462 1464 1466 1469 1471
1420 1421 1423 1430 1434 1432 1434 1439 1438 1441 1449 1449 1438 1432 1434 1434 1434 1436 1438 1439 1438 1438 1445 1449 1433 1416 1418 1426 1428 1429 1431 1431 1431 1432 1433 1434 1434 1434 1433 1434 1435 1434 1435 1436 1436 1437 1438 1439 1440 1441 1441 1441 1441 1441 1441 1441 1440 1440 1440 1440 1440 1440 1440 1440 1440 1441 1441 1441 1442 1442 1442 1443 1443 1444 1446 1448 1450 1451 1452 1454 1456 1459 1462 1464 1466 1468
1416 1417 1419 1421 1425 1431 1437 1439 1441 1449 1446 1428 1411 1411 1419 1424 1428 1433 1432 1430 1432 1434 1434 1428 1417 1415 1423 1426 1425 1428 1429 1429 1429 1429 1430 1431 1431 1431 1430 1430 1431 1430 1431 1433 1433 1434 1435 1436 1437 1437 1437 1438 1438 1438 1439 1438 1438 1438 1438 1438 1438 1438 1438 1438 1438 1439 1439 1439 1440 1440 1440 1441 1441 1442 1445 1446 1449 1450 1451 1453 1455 1457 1459 1461 1464 1466
1409 1413 1415 1414 1420 1432 1437 1438 1447 1446 1424 1403 1399 1405 1412 1417 1422 1425 1424 1423 1426 1426 1422 1420 1417 1418 1421 1422 1423 1426 1425 1426 1427 1425 1425 1426 1428 1428 1426 1426 1427 1428 1428 1430 1430 1431 1432 1433 1433 1434 1433 1434 1435 1435 1436 1436 1436 1436 1436 1436 1436 1436 1436 1437 1437 1437 1437 1437 1437 1437 1438 1439 1439 1441 1443 1445 1448 1449 1451 1452 1453 1455 1457 1459 1462 1464
1406 1409 1410 1411 1418 1430 1436 1436 1434 1422 1404 1399 1403 1403 1405 1412 1418 1422 1423 1416 1411 1412 1415 1415 1413 1414 1417 1419 1420 1422 1423 1424 1423 1419 1419 1423 1423 1422 1422 1422 1424 1425 1426 1427 1428 1428 1429 1429 1430 1430 1430 1431 1432 1432 1433 1433 1433 1434 1433 1434 1434 1434 1434 1435 1435 1435 1435 1435 1435 1435 1436 1437 1437 1439 1441 1443 1446 1448 1450 1451 1452 1454 1456 1458 1460 1462
1409 1406 1406 1409 1414 1421 1430 1426 1414 1408 1406 1403 1400 1396 1397 1401 1404 1410 1414 1404 1398 1405 1409 1405 1405 1410 1413 1415 1417 1420 1422 1423 1418 1411 1411 1415 1416 1417 1418 1419 1421 1423 1424 1425 1425 1425 1425 1426 1426 1427 1427 1427 1428 1429 1430 1430 1431 1431 1431 1432 1432 1432 1432 1433 1433 1433 1433 1433 1433 1434 1434 1435 1435 1436 1439 1441 1443 1446 1448 1450 1452 1454 1456 1457 1459 1460
1412 1408 1405 1408 1409 1411 1420 1422 1418 1418 1409 1390 1383 1385 1389 1392 1395 1403 1410 1401 1390 1395 1399 1396 1401 1407 1408 1411 1414 1417 1422 1423 1413 1401 1401 1407 1409 1412 1416 1417 1418 1419 1420 1421 1422 1421 1422 1422 1422 1423 1424 1424 1425 1426 1426 1427 1428 1428 1429 1429 1430 1430 1430 1431 1431 1431 1432 1432 1433 1433 1433 1433 1434 1435 1437 1439 1441 1444 1446 1448 1451 1453 1455 1456 1458 1460
1414 1411 1407 1409 1410 1409 1413 1415 1415 1410 1389 1369 1371 1380 1388 1393 1395 1408 1421 1401 1377 1381 1391 1390 1395 1401 1403 1406 1407 1411 1420 1419 1404 1393 1396 1402 1405 1408 1412 1413 1413 1415 1415 1417 1417 1417 1417 1418 1418 1419 1420 1420 1422 1423 1424 1425 1425 1426 1426 1427 1427 1428 1428 1429 1430 1430 1430 1431 1431 1431 1431 1432 1433 1434 1435 1437 1440 1442 1445 1447 1449 1451 1453 1454 1456 1458
1414 1414 1412 1412 1411 1408 1406 1405 1401 1391 1372 1364 1371 1377 1384 1389 1395 1417 1425 1390 1360 1370 1381 1381 1387 1394 1394 1396 1399 1403 1407 1401 1391 1390 1396 1399 1402 1405 1407 1409 1410 1411 1412 1413 1413 1413 1413 1413 1414 1414 1415 1417 1419 1420 1421 1422 1422 1423 1424 1424 1425 1426 1426 1427 1428 1428 1429 1429 1429 1429 1430 1430 1431 1433 1434 1436 1438 1441 1443 1445 1447 1449 1451 1453 1454 1456
1409 1410 1410 1410 1408 1405 1402 1399 1394 1381 1365 1364 1371 1373 1379 1390 1400 1409 1397 1364 1351 1363 1367 1368 1378 1382 1381 1385 1389 1390 1388 1384 1385 1391 1396 1398 1401 1403 1404 1406 1408 1409 1410 1410 1410 1409 1410 1410 1410 1411 1412 1413 1415 1416 1417 1418 1419 1420 1421 1421 1422 1423 1424 1425 1425 1426 1426 1426 1427 1428 1428 1429 1430 1431 1433 1435 1437 1439 1441 1443 1445 1447 1449 1450 1452 1453
1401 1404 1406 1406 1405 1403 1398 1395 1394 1381 1361 1360 1372 1374 1376 1385 1388 1377 1359 1349 1354 1361 1360 1363 1369 1371 1374 1380 1381 1381 1382 1383 1387 1392 1394 1396 1398 1399 1402 1404 1405 1406 1407 1407 1407 1407 1407 1407 1407 1408 1409 1409 1411 1412 1413 1414 1415 1416 1417 1419 1420 1421 1421 1422 1423 1424 1424 1425 1425 1426 1427 1427 1429 1430 1431 1433 1434 1436 1438 1439 1441 1444 1445 1447 1448 1450
1382 1390 1397 1396 1395 1399 1400 1399 1395 1377 1352 1351 1368 1374 1368 1366 1361 1352 1350 1355 1359 1359 1361 1365 1365 1367 1373 1375 1376 1379 1382 1383 1387 1389 1391 1393 1394 1396 1399 1400 1402 1404 1404 1404 1405 1404 1404 1404 1404 1405 1406 1406 1408 1409 1410 1412 1413 1414 1415 1416 1417 1418 1419 1420 1421 1421 1422 1423 1424 1425 1425 1426 1427 1428 1429 1430 1432 1433 1435 1437 1439 1441 1442 1444 1446 1448
1369 1373 1380 1382 1382 1388 1390 1382 1370 1355 1343 1344 1353 1357 1355 1354 1352 1351 1354 1357 1358 1359 1360 1361 1361 1365 1368 1370 1373 1377 1378 1380 1384 1385 1387 1390 1390 1392 1395 1396 1399 1400 1400 1401 1401 1401 1401 1402 1402 1402 1403 1404 1405 1407 1408 1410 1411 1413 1414 1415 1415 1416 1417 1418 1419 1420 1420 1422 1423 1424 1424 1425 1426 1427 1428 1429 1431 1432 1434 1435 1437 1439 1441 1443 1444 1446
1360 1356 1358 1362 1364 1364 1361 1355 1350 1348 1347 1346 1345 1346 1351 1354 1353 1354 1354 1354 1357 1359 1358 1358 1361 1363 1364 1367 1371 1373 1375 1378 1380 1381 1384 1386 1387 1388 1391 1392 1394 1395 1396 1398 1398 1398 1399 1400 1400 1401 1402 1403 1404 1406 1407 1409 1410 1412 1413 1413 1414 1415 1416 1417 1418 1419 1420 1421 1422 1423 1423 1424 1425 1426 1427 1429 1430 1431 1433 1435 1436 1438 1439 1441 1442 1443
1350 1350 1352 1354 1357 1358 1353 1349 1349 1351 1349 1348 1347 1348 1351 1351 1351 1353 1355 1355 1356 1357 1358 1359 1360 1361 1363 1367 1369 1371 1374 1376 1377 1380 1382 1383 1384 1386 1387 1388 1389 1391 1393 1395 1396 1397 1398 1398 1399 1400 1401 1402 1404 1405 1406 1408 1409 1410 1411 1412 1413 1414 1415 1416 1418 1418 1419 1420 1420 1421 1422 1422 1423 1425 1426 1427 1428 1430 1431 1433 1434 1436 1437 1438 1439 1440
1350 1354 1356 1355 1358 1361 1353 1343 1344 1349 1348 1348 1349 1348 1348 1349 1351 1352 1354 1355 1357 1358 1359 1359 1359 1360 1363 1364 1366 1370 1373 1374 1377 1379 1380 1381 1382 1383 1384 1385 1387 1388 1390 1392 1393 1394 1395 1396 1397 1399 1399 1401 1403 1404 1406 1408 1408 1409 1410 1411 1412 1413 1414 1415 1416 1417 1418 1419 1419 1420 1420 1421 1422 1422 1423 1425 1426 1427 1429 1430 1431 1432 1433 1435 1436 1437
1343 1348 1352 1351 1351 1350 1341 1335 1340 1347 1347 1346 1345 1345 1345 1348 1350 1351 1354 1356 1357 1358 1358 1357 1358 1359 1360 1362 1366 1369 1371 1374 1376 1377 1378 1379 1380 1380 1382 1383 1384 1386 1388 1390 1391 1393 1393 1394 1396 1397 1399 1401 1403 1404 1406 1407 1408 1409 1409 1410 1411 1412 1412 1414 1415 1416 1417 1418 1418 1419 1419 1420 1420 1421 1421 1422 1423 1424 1426 1427 1428 1429 1430 1432 1433 1435
1334 1341 1344 1345 1346 1345 1338 1335 1340 1345 1343 1340 1339 1339 1341 1344 1348 1352 1355 1355 1355 1355 1355 1355 1356 1357 1358 1361 1365 1367 1370 1373 1375 1376 1377 1378 1378 1379 1381 1382 1383 1385 1387 1388 1390 1391 1392 1393 1394 1396 1398 1400 1401 1403 1405 1405 1406 1407 1408 1409 1410 1410 1411 1412 1413 1414 1415 1416 1417 1417 1418 1418 1419 1419 1420 1421 1421 1422 1423 1425 1426 1427 1428 1430 1431 1432
1332 1336 1336 1340 1346 1340 1328 1323 1327 1329 1328 1328 1332 1337 1341 1345 1349 1352 1352 1351 1352 1353 1353 1353 1354 1355 1357 1360 1363 1366 1369 1371 1373 1375 1376 1376 1378 1379 1380 1380 1382 1383 1384 1386 1388 1389 1390 1392 1393 1394 1396 1398 1400 1401 1403 1404 1405 1406 1406 1407 1408 1408 1409 1410 1411 1412 1413 1414 1415 1415 1416 1417 1417 1418 1419 1419 1420 1421 1422 1422 1424 1425 1426 1427 1429 1430
1320 1320 1321 1326 1326 1314 1304 1308 1317 1319 1320 1324 1332 1338 1341 1343 1347 1349 1348 1348 1349 1350 1351 1352 1352 1353 1356 1358 1361 1364 1367 1369 1371 1373 1374 1376 1378 1379 1379 1380 1381 1382 1383 1385 1386 1387 1389 1391 1392 1393 1395 1396 1398 1399 1400 1402 1403 1404 1405 1406 1406 1407 1407 1408 1409 1410 1410 1411 1412 1413 1414 1415 1415 1416 1417 1417 1418 1419 1419 1420 1421 1422 1423 1425 1426 1427